太空蜂星座-142星 (SPACEBEE-142)

导读

SPACEBEE-142是美国蜂群科技公司于2022年5月2日发射的皮卫星,属于SpaceBEE星座,依托0.25U立方体卫星平台打造,质量仅0.25千克,运行于近地轨道。该卫星是全球物联网低功耗卫星通信网络的组成部分,采用存储转发设计,为全球物联网设备提供低成本双向连接与数据中继服务,设计寿命6个月至2年。

基本信息
目录编号:
52401
目录名称:
SPACEBEE-142
国际标识:
2022-047H
轨道中心:
EARTH
卫星名称:
太空蜂星座-142星
卫星全名:
太空蜂星座-142星 (SPACEBEE-142)
卫星状态:
已陨落 最后检测时间 2024-05-04
发射日期:
2022-05-02 UTC
国别 :
美国 (US)
星等 :
--
轨道信息
数据来源 国际轨道数据
星历时间: 2024-05-04T15:39:43+0800
轨道信息已过期801天
半长轴: 6530.513km
偏心率: 0.0018476
轨道倾角: 97.368°
近地点辐角 260.154°
升交点赤经 220.372°
平近点角 99.768°
近地点: 140.312km
远地点: 164.444km
周期: 87.535分钟
每日圈数: 16.450603
详细信息
平衡模式:
三轴稳定
覆盖范围:
全球
运营商:
蜂群科技公司
运营商所在国:
美国
制造商(研发单位):
蜂群科技公司
制造商所在国:
美国
使用方式:
暂无
卫星简介
太空蜜蜂(SpaceBEE)皮卫星建立在0.25U立方体卫星平台上,是私营公司蜂群科技公司(Swarm Technologies)开发的卫星星座的一部分。该星座计划由大约150颗皮卫星组成,提供双向卫星通信和数据中继。该卫星已陨落。